When you browse on this site, cookies collect data to enhance your experience and personalize the content and advertising you see.
Visit our Privacy Policy to learn more. By continuing to use the site, you agree to this use of cookies and data.
  • In Hungary
  • List of Countries
  • For 7 days
  • Water Temperature
  • Weather Map
  • News
  • Weather Widgets
  • user-avatar
    Login

    Hourly Weather Nevetlenfolu

    Today, 9 December, Monday

    Time Temperature Precipitation Wind Pressure Humidity
    00:00 0°C° 0 mm 4 mps 749 mmHg 95%
    01:00 0°C° 0 mm 4 mps 749 mmHg 96%
    02:00 +2°C° 0 mm 0 mps 749 mmHg 90%
    03:00 +1°C° 0 mm 2 mps 748 mmHg 96%
    04:00 0°C° 0 mm 3 mps 748 mmHg 97%
    05:00 -1°C° 0 mm 4 mps 748 mmHg 95%
    06:00 0°C° 0 mm 4 mps 747 mmHg 95%
    07:00 0°C° 0 mm 4 mps 748 mmHg 94%
    08:00 0°C° 0 mm 4 mps 748 mmHg 94%
    09:00 +1°C° 0 mm 4 mps 748 mmHg 93%
    10:00 +1°C° 0 mm 4 mps 747 mmHg 93%
    11:00 +3°C° 0 mm 3 mps 747 mmHg 93%
    12:00 +4°C° 0 mm 3 mps 747 mmHg 94%
    13:00 +4°C° 0.1 mm 4 mps 746 mmHg 98%
    14:00 +5°C° 0 mm 5 mps 746 mmHg 96%
    15:00 +5°C° 0 mm 4 mps 745 mmHg 93%
    16:00 +5°C° 0 mm 3 mps 745 mmHg 95%
    17:00 +5°C° 0 mm 3 mps 745 mmHg 95%
    18:00 +5°C° 0 mm 4 mps 745 mmHg 98%
    19:00 +5°C° 0 mm 3 mps 745 mmHg 97%
    20:00 +4°C° 0 mm 3 mps 745 mmHg 97%
    21:00 +4°C° 0 mm 3 mps 746 mmHg 99%
    22:00 +4°C° 0 mm 3 mps 745 mmHg 99%
    23:00 +4°C° 0 mm 3 mps 745 mmHg 97%

    Tomorrow, 10 December, Tuesday

    Time Temperature Precipitation Wind Pressure Humidity
    00:00 +4°C° 0 mm 3 mps 746 mmHg 97%
    01:00 +4°C° 0 mm 3 mps 746 mmHg 99%
    02:00 +4°C° 0.1 mm 3 mps 746 mmHg 100%
    03:00 +4°C° 0.1 mm 3 mps 746 mmHg 100%
    04:00 +5°C° 0.1 mm 2 mps 746 mmHg 100%
    05:00 +5°C° 0 mm 2 mps 746 mmHg 99%
    06:00 +6°C° 0 mm 1 mps 746 mmHg 98%
    07:00 +5°C° 0 mm 0 mps 747 mmHg 97%
    08:00 +5°C° 0 mm 0 mps 747 mmHg 98%
    09:00 +6°C° 0 mm 1 mps 747 mmHg 98%
    10:00 +7°C° 0 mm 1 mps 748 mmHg 98%
    11:00 +7°C° 0 mm 1 mps 748 mmHg 97%
    12:00 +7°C° 0 mm 2 mps 748 mmHg 97%
    13:00 +7°C° 0 mm 2 mps 748 mmHg 96%
    14:00 +8°C° 0 mm 3 mps 749 mmHg 96%
    15:00 +7°C° 0 mm 3 mps 749 mmHg 96%
    16:00 +7°C° 0 mm 3 mps 749 mmHg 97%
    17:00 +6°C° 0 mm 2 mps 749 mmHg 98%
    18:00 +4°C° 0 mm 4 mps 749 mmHg 95%
    19:00 +4°C° 0 mm 4 mps 750 mmHg 92%
    20:00 +3°C° 0 mm 4 mps 751 mmHg 92%
    21:00 +1°C° 0 mm 4 mps 751 mmHg 93%
    22:00 +2°C° 0 mm 3 mps 751 mmHg 92%
    23:00 +3°C° 0 mm 3 mps 751 mmHg 90%

    Day after tomorrow, 11 December, Wednesday

    Time Temperature Precipitation Wind Pressure Humidity
    00:00 +2°C° 0 mm 3 mps 752 mmHg 93%
    01:00 +3°C° 0 mm 2 mps 752 mmHg 94%
    02:00 +3°C° 0.1 mm 2 mps 752 mmHg 97%
    03:00 0°C° 0.8 mm 4 mps 752 mmHg 100%
    04:00 +1°C° 0.6 mm 3 mps 751 mmHg 99%
    05:00 0°C° 0.2 mm 4 mps 751 mmHg 98%
    06:00 +1°C° 0.3 mm 3 mps 751 mmHg 100%
    07:00 +1°C° 0.3 mm 3 mps 751 mmHg 100%
    08:00 +2°C° 0.3 mm 2 mps 752 mmHg 100%
    09:00 +2°C° 0.1 mm 2 mps 751 mmHg 99%
    10:00 +2°C° 0 mm 2 mps 751 mmHg 97%
    11:00 +3°C° 0 mm 2 mps 751 mmHg 97%
    12:00 +4°C° 0 mm 1 mps 751 mmHg 98%
    13:00 +3°C° 0.2 mm 2 mps 750 mmHg 99%
    14:00 +4°C° 0.1 mm 2 mps 750 mmHg 96%
    15:00 +5°C° 0 mm 1 mps 750 mmHg 98%
    16:00 +5°C° 0.1 mm 1 mps 749 mmHg 99%
    17:00 +5°C° 0 mm 1 mps 749 mmHg 100%
    18:00 +4°C° 0 mm 1 mps 749 mmHg 98%
    19:00 +4°C° 0 mm 1 mps 749 mmHg 99%
    20:00 +4°C° 0 mm 1 mps 749 mmHg 100%
    21:00 +3°C° 0 mm 2 mps 749 mmHg 99%
    22:00 +3°C° 0 mm 2 mps 749 mmHg 95%
    23:00 +2°C° 0 mm 2 mps 749 mmHg 93%

    12 December, Thursday

    Time Temperature Precipitation Wind Pressure Humidity
    00:00 +3°C° 0 mm 1 mps 749 mmHg 93%
    01:00 +2°C° 0 mm 0 mps 749 mmHg 94%
    02:00 +2°C° 0 mm 0 mps 749 mmHg 95%
    03:00 +2°C° 0 mm 0 mps 749 mmHg 98%
    04:00 +3°C° 0 mm 1 mps 748 mmHg 98%
    05:00 +3°C° 0 mm 1 mps 748 mmHg 97%
    06:00 +3°C° 0 mm 1 mps 748 mmHg 98%
    07:00 +3°C° 0 mm 1 mps 748 mmHg 99%
    08:00 +3°C° 0 mm 1 mps 748 mmHg 99%
    09:00 +2°C° 0 mm 0 mps 748 mmHg 99%
    10:00 +3°C° 0 mm 0 mps 748 mmHg 98%
    11:00 +4°C° 0 mm 1 mps 747 mmHg 96%
    12:00 +4°C° 0 mm 2 mps 747 mmHg 95%
    13:00 +6°C° 0 mm 1 mps 747 mmHg 94%
    14:00 +6°C° 0 mm 1 mps 746 mmHg 94%
    15:00 +5°C° 0 mm 2 mps 746 mmHg 95%
    16:00 +5°C° 0 mm 2 mps 746 mmHg 96%
    17:00 +4°C° 0 mm 2 mps 745 mmHg 97%
    18:00 +5°C° 0 mm 1 mps 745 mmHg 97%
    19:00 +5°C° 0 mm 1 mps 745 mmHg 97%
    20:00 +6°C° 0 mm 1 mps 745 mmHg 96%
    21:00 +6°C° 0 mm 1 mps 745 mmHg 97%
    22:00 +5°C° 0.1 mm 1 mps 744 mmHg 100%
    23:00 +4°C° 0.4 mm 2 mps 744 mmHg 100%

    13 December, Friday

    Time Temperature Precipitation Wind Pressure Humidity
    00:00 +4°C° 0.4 mm 0 mps 744 mmHg 100%
    01:00 +5°C° 0.3 mm 1 mps 744 mmHg 100%
    02:00 +4°C° 1.3 mm 2 mps 743 mmHg 100%

    14 December, Saturday

    Time Temperature Precipitation Wind Pressure Humidity
    Show more